Location: Central Falls
(41.8900°N, 71.3929°W)
Time: 12:24:28
(UTC+00:00)

A-11 Canister half - Pass Details

Date: 10 December 2023
Orbit: 1512 x 1687 km, 47.2° (Epoch: 20 February)

Event Time Altitude Azimuth Distance (km) Brightness Sun altitude
Rises 01:47:51 0° 199° (SSW) 4,656 11.6 -49.9°
Enters shadow 01:47:54 - 199° (SSW) 4,640 11.6 -49.9°
Reaches altitude 10° 01:51:16 10° 190° (S) 3,692 - -50.5°
Maximum altitude 01:59:09 32° 131° (SE) 2,435 - -51.9°
Drops below altitude 10° 02:07:15 10° 74° (ENE) 3,811 - -53.3°
Sets 02:10:49 0° 65° (ENE) 4,827 - -54.0°
